Tracking 28531 objects as of 2-Mar-2024
HD Live streaming from Space Station
objects crossing your sky now

FLOCK 4Q 23

Track FLOCK 4Q 23 now!
10-day predictions
FLOCK 4Q 23 is classified as:


NORAD ID: 58307
Int'l Code: 2023-174BD
Perigee: 515.0 km
Apogee: 530.7 km
Inclination: 97.5 °
Period: 94.9 minutes
Semi major axis: 6893 km
RCS: Unknown
Launch date: November 11, 2023
Source: United States (US)
Launch site: AIR FORCE WESTERN TEST RANGE (AFWTR)
Your satellite tracking list
Your tracking list is empty




NASA's NSSDC Master Catalog

Two Line Element Set (TLE):
1 58307U 23174BD  24060.75954789  .00013668  00000-0  69824-3 0  9992
2 58307  97.4723 137.0156 0011383 238.6714 121.3406 15.16749232 17260
Source of the keplerian elements: AFSPC